Tracking 23731 objects as of 26-Sep-2021
HD Live streaming from Space Station
objects crossing your sky now

STARLINK-2725

Track STARLINK-2725 now!
10-day predictions
STARLINK-2725 is classified as:


NORAD ID: 48681
Int'l Code: 2021-044AV
Perigee: 487.2 km
Apogee: 489.4 km
Inclination: 53.0 °
Period: 94.2 minutes
Semi major axis: 6859 km
RCS: Unknown
Launch date: May 26, 2021
Source: United States (US)
Launch site: AIR FORCE EASTERN TEST RANGE (AFETR)
aabbcc
Your satellite tracking list
Your tracking list is empty




NASA's NSSDC Master Catalog

Two Line Element Set (TLE):
1 48681U 21044AV  21269.25001157 -.01066946  00000-0 -41771-1 0  9994
2 48681  53.0486 179.5488 0001594  52.7499 192.9368 15.28213321 20167
Source of the keplerian elements: AFSPC